Temperature
2 2 2 2 1 -0 -1 -2 -2 -2 -2 -2 -2 -3 -3 -4 -5 -5 -6 -6 -7 -7 -8 -8 -9 -9 -9 -9 -9 -8 -8 -7 -7 -7 -6 -3 -1 0 1 2 3 4 5
3 3 2 1 -0 -1 -2 -2 -2 -3 -3 -3 -4 -4 -5 -5 -6 -6 -7 -7 -8 -8 -9 -9 -9 -9 -9 -9 -9 -9 -9 -8 -8 -8 -7 -6 -4 -1 1 1 2 2 3
3 2 1 0 -1 -2 -2 -3 -3 -4 -4 -4 -5 -5 -5 -6 -6 -7 -8 -8 -9 -9 -9 -10 -10 -10 -10 -10 -10 -10 -10 -10 -9 -8 -8 -6 -6 -6 -3 -1 0 1 2
2 2 1 -1 -1 -2 -3 -3 -4 -4 -5 -5 -6 -6 -7 -7 -8 -9 -9 -9 -9 -9 -10 -10 -11 -11 -11 -11 -11 -11 -11 -11 -10 -9 -8 -8 -7 -6 -6 -4 -2 -1 1
2 1 0 -1 -2 -2 -3 -4 -4 -5 -5 -6 -7 -7 -8 -9 -9 -9 -9 -9 -9 -10 -11 -11 -11 -11 -11 -11 -11 -11 -11 -11 -11 -10 -9 -8 -7 -7 -6 -6 -5 -3 -0
1 1 0 -1 -2 -3 -4 -4 -5 -5 -6 -7 -8 -8 -9 -9 -9 -10 -10 -11 -11 -11 -11 -12 -12 -12 -12 -12 -12 -12 -11 -11 -10 -10 -10 -9 -8 -7 -7 -6 -6 -6 -3
1 1 -1 -2 -3 -4 -5 -5 -5 -6 -7 -7 -8 -9 -9 -10 -10 -11 -11 -12 -12 -12 -12 -13 -13 -13 -13 -12 -12 -12 -12 -11 -10 -10 -10 -9 -9 -8 -7 -7 -7 -6 -5
1 -0 -2 -3 -4 -5 -5 -5 -6 -7 -7 -8 -9 -9 -10 -10 -11 -11 -12 -12 -13 -13 -13 -14 -14 -14 -13 -13 -12 -12 -12 -11 -10 -10 -10 -9 -8 -8 -7 -7 -7 -6 -6
0 -1 -3 -4 -4 -5 -5 -6 -6 -7 -8 -9 -10 -10 -11 -11 -11 -12 -12 -13 -13 -14 -14 -14 -14 -14 -13 -13 -13 -13 -12 -11 -10 -10 -9 -9 -8 -8 -7 -7 -7 -7 -6
-0 -2 -3 -4 -5 -5 -5 -6 -7 -8 -8 -9 -10 -11 -11 -12 -12 -13 -13 -13 -14 -14 -14 -14 -14 -14 -14 -13 -13 -13 -12 -11 -10 -10 -9 -9 -8 -8 -7 -7 -7 -7 -6
-2 -3 -4 -4 -5 -5 -5 -6 -7 -8 -9 -10 -11 -11 -12 -12 -13 -13 -14 -14 -14 -14 -14 -14 -14 -14 -14 -14 -13 -12 -12 -11 -10 -9 -9 -9 -8 -8 -7 -7 -7 -6 -6
-3 -3 -4 -4 -4 -5 -6 -7 -8 -9 -10 -11 -11 -12 -12 -13 -13 -14 -14 -14 -14 -14 -14 -14 -14 -14 -14 -13 -13 -12 -11 -10 -10 -9 -9 -8 -8 -8 -7 -7 -7 -6 -6
-3 -3 -4 -4 -4 -5 -6 -7 -8 -9 -10 -11 -11 -12 -12 -13 -14 -14 -14 -14 -14 -14 -14 -14 -14 -14 -13 -13 -12 -11 -10 -10 -10 -9 -9 -9 -9 -8 -8 -8 -7 -6 -5
-3 -3 -4 -4 -5 -5 -7 -8 -9 -10 -10 -11 -11 -11 -12 -13 -13 -14 -14 -14 -14 -14 -14 -14 -13 -13 -13 -12 -11 -10 -10 -10 -10 -9 -9 -9 -9 -9 -9 -8 -8 -7 -6
-3 -3 -4 -4 -5 -6 -7 -8 -9 -10 -10 -11 -11 -12 -12 -13 -13 -13 -14 -14 -14 -13 -13 -13 -13 -13 -12 -11 -10 -10 -10 -10 -10 -10 -9 -9 -9 -10 -9 -9 -8 -8 -7
-2 -3 -4 -5 -5 -6 -7 -8 -9 -10 -10 -10 -11 -12 -12 -13 -14 -14 -14 -13 -13 -13 -13 -13 -13 -12 -11 -10 -10 -11 -11 -10 -10 -10 -10 -10 -10 -10 -10 -9 -9 -8 -8
-2 -4 -4 -5 -6 -6 -7 -8 -9 -9 -10 -10 -11 -12 -12 -13 -14 -14 -13 -13 -13 -13 -13 -13 -13 -12 -11 -10 -11 -11 -11 -11 -11 -11 -10 -10 -10 -10 -10 -10 -9 -9 -8
-3 -4 -4 -5 -6 -6 -7 -8 -8 -9 -10 -10 -11 -12 -12 -13 -14 -14 -13 -13 -13 -13 -14 -14 -13 -12 -12 -11 -12 -12 -12 -11 -11 -11 -11 -11 -11 -10 -11 -10 -10 -9 -9
-3 -4 -5 -5 -6 -6 -7 -8 -8 -9 -9 -10 -11 -12 -12 -13 -13 -13 -13 -13 -13 -14 -14 -14 -13 -13 -12 -12 -12 -13 -12 -12 -12 -12 -12 -12 -12 -11 -11 -10 -11 -10 -9
-3 -4 -5 -5 -5 -6 -7 -7 -8 -8 -9 -10 -11 -11 -12 -13 -13 -13 -13 -13 -14 -14 -14 -14 -13 -13 -13 -13 -12 -13 -13 -13 -13 -13 -13 -12 -12 -12 -12 -12 -12 -11 -10
-4 -4 -5 -5 -5 -6 -7 -7 -7 -8 -9 -10 -10 -11 -12 -12 -13 -13 -13 -13 -14 -14 -14 -13 -13 -13 -13 -13 -12 -13 -13 -13 -14 -14 -14 -13 -13 -13 -13 -13 -13 -12 -11
-4 -4 -5 -5 -5 -6 -6 -7 -7 -8 -9 -9 -10 -11 -11 -12 -13 -13 -13 -13 -14 -14 -13 -13 -13 -13 -13 -13 -13 -13 -13 -14 -14 -14 -14 -14 -14 -14 -13 -13 -13 -12 -11
-4 -4 -4 -5 -5 -6 -6 -7 -7 -8 -8 -8 -9 -10 -11 -12 -12 -13 -14 -14 -13 -13 -13 -13 -13 -13 -13 -13 -14 -13 -14 -14 -14 -14 -14 -14 -14 -13 -13 -13 -12 -11 -11
-3 -4 -4 -5 -5 -6 -6 -7 -7 -8 -8 -8 -9 -9 -10 -11 -12 -12 -13 -14 -14 -13 -13 -13 -13 -13 -13 -13 -13 -14 -14 -14 -14 -14 -14 -14 -14 -14 -13 -13 -13 -12 -12
-3 -4 -4 -5 -5 -6 -6 -7 -7 -7 -7 -8 -8 -9 -10 -10 -11 -12 -12 -13 -13 -13 -13 -13 -13 -13 -13 -13 -13 -13 -14 -14 -14 -14 -14 -14 -14 -14 -14 -14 -14 -13 -13
-3 -4 -4 -5 -5 -6 -6 -6 -7 -7 -7 -8 -8 -9 -10 -10 -10 -11 -11 -12 -13 -13 -13 -13 -13 -13 -13 -13 -13 -13 -14 -14 -14 -14 -14 -15 -15 -15 -15 -15 -15 -14 -14
Wind_Speed
5 4 3 5 6 7 8 8 8 9 11 8 10 10 10 8 13 18 20 21 23 23 19 17 16 16 9 10 11 11 13 12 12 13 14 12 10 9 7 8 10 9 13
3 3 6 6 5 5 6 7 8 7 10 9 8 7 6 7 12 14 17 19 21 21 19 18 14 14 9 10 10 10 8 11 11 11 12 8 7 7 10 8 8 9 11
4 4 4 3 3 5 7 10 8 7 10 13 11 11 5 4 5 5 8 17 20 19 18 20 16 14 9 9 10 8 9 11 11 9 7 6 6 13 7 7 7 10 11
3 1 1 1 3 5 6 7 7 7 10 13 9 10 10 8 8 7 7 15 18 18 18 20 17 15 12 8 9 9 9 10 11 10 7 8 10 8 8 7 6 9 12
4 2 0 2 4 5 6 6 7 6 8 11 9 9 9 8 8 9 9 9 14 17 18 19 16 16 12 9 8 9 9 8 10 10 10 10 9 10 9 14 13 12 7
3 1 2 4 5 5 6 7 7 7 7 8 8 9 10 11 13 13 10 10 8 11 18 19 16 17 13 10 9 8 11 10 11 11 10 10 8 9 9 11 15 15 12
3 1 4 6 7 8 7 7 8 7 8 8 9 10 9 10 11 12 11 12 10 9 10 17 15 14 15 16 14 9 11 11 12 12 11 11 10 11 10 11 13 15 13
1 2 4 6 6 7 7 7 8 8 8 9 9 8 8 9 9 11 12 12 11 10 15 18 17 17 18 18 14 10 11 11 12 14 13 11 10 10 10 10 11 14 12
1 3 5 6 6 7 7 8 8 8 9 9 9 8 8 9 11 10 10 9 12 16 18 19 16 16 17 15 12 10 12 12 12 12 13 11 10 9 9 9 9 11 14
1 4 5 5 6 6 7 8 7 8 9 9 8 13 9 10 11 10 12 11 14 17 17 15 14 14 14 14 11 11 12 13 13 11 13 13 9 8 9 9 9 10 12
0 2 4 5 6 6 7 7 8 9 9 9 9 10 11 11 12 10 11 12 14 16 14 14 14 15 15 12 12 13 14 14 14 13 13 13 11 9 8 9 9 10 11
1 1 4 5 6 7 8 8 9 9 10 10 10 10 11 10 11 12 12 15 13 15 16 16 15 16 16 14 14 15 14 14 14 13 12 11 9 9 8 8 9 10 11
1 2 4 5 6 8 8 8 9 10 10 10 10 11 11 11 12 12 12 14 13 14 16 15 16 17 18 18 16 14 13 12 11 10 8 8 10 10 9 9 8 9 10
1 3 4 5 7 7 8 8 9 9 11 10 10 10 11 12 12 11 11 12 13 13 15 16 18 19 20 17 12 9 6 5 6 7 8 9 9 12 12 9 10 11 11
2 5 5 6 7 7 8 8 9 9 10 10 11 12 12 12 12 12 12 12 13 14 14 17 18 20 18 13 10 9 10 9 9 10 10 11 14 20 16 12 11 12 11
3 5 5 6 7 7 8 9 9 9 9 9 11 12 12 13 13 13 12 13 14 14 14 15 17 19 18 23 27 19 13 11 11 11 11 11 11 17 22 22 21 18 14
3 3 4 5 6 7 7 8 9 9 9 9 10 11 12 13 13 14 13 13 13 13 13 14 16 17 21 26 26 24 14 12 12 12 11 13 15 13 8 16 20 19 21
2 1 3 4 5 6 7 7 8 8 9 9 10 11 11 12 12 12 11 11 10 11 10 11 14 15 21 26 24 22 13 11 12 12 12 11 13 15 14 12 11 11 13
3 2 2 3 4 6 7 7 8 8 8 9 11 11 11 11 11 12 11 9 9 8 9 10 12 14 18 26 23 19 9 10 11 13 14 14 11 23 23 16 14 13 12
4 2 0 2 4 6 6 7 8 8 9 10 11 11 11 11 10 11 10 8 8 9 10 11 10 12 13 23 23 17 9 10 10 11 13 19 20 24 24 15 14 15 13
5 3 2 3 4 5 6 7 7 8 9 9 9 10 10 10 9 10 8 9 9 9 9 10 10 10 14 19 23 21 8 10 10 10 10 12 23 24 24 20 15 18 15
5 3 2 3 4 5 6 6 7 8 8 8 9 9 9 9 10 9 9 8 8 7 8 8 9 9 10 14 18 23 20 16 11 10 8 12 22 23 24 19 21 23 18
5 3 2 3 4 5 5 5 7 7 7 8 8 8 8 8 8 7 8 8 7 5 6 7 7 8 8 9 16 19 20 20 10 9 17 20 22 20 17 23 25 19 13
5 4 3 3 4 5 5 4 6 7 7 8 8 7 7 7 7 8 8 7 7 6 5 6 6 7 8 7 5 5 7 12 11 9 14 19 21 18 18 18 16 13 13
5 4 3 1 2 4 4 5 6 6 6 7 7 8 8 7 6 7 7 8 6 9 8 5 5 5 6 9 14 10 7 5 8 8 8 9 10 12 12 12 12 12 12
5 5 4 1 1 2 4 5 6 6 5 6 7 6 6 6 7 6 7 12 13 16 16 15 13 9 12 14 14 14 15 16 17 10 7 9 9 10 11 11 11 11 12
Wind_Direction
131 142 80 54 38 24 9 1 352 348 356 356 357 352 349 344 346 348 348 349 348 346 344 350 345 347 341 335 335 334 335 335 333 327 322 305 287 289 326 326 319 338 350
127 72 45 36 25 9 354 359 357 351 357 355 346 339 327 323 333 333 339 344 344 343 347 345 341 342 337 332 333 333 336 331 334 328 325 319 313 338 319 311 319 346 340
103 54 26 19 2 1 359 6 353 348 352 352 349 345 327 313 326 323 333 337 337 336 339 337 334 335 332 329 327 328 334 327 324 323 318 318 321 324 302 316 331 336 328
110 81 341 355 6 357 357 356 347 342 349 353 351 349 346 335 329 326 320 325 329 328 334 332 331 330 326 322 323 335 319 318 318 316 301 305 308 305 309 312 316 323 326
152 180 249 14 8 358 354 348 339 337 346 348 344 340 334 326 324 325 321 320 324 325 329 327 330 327 321 316 312 314 313 311 306 306 306 304 302 290 296 305 314 318 312
189 206 4 3 354 354 350 341 337 335 340 342 338 333 330 328 330 331 327 328 323 324 326 325 328 325 320 315 312 309 309 305 300 300 301 301 299 301 300 299 307 310 312
211 332 358 353 349 347 341 335 338 337 339 339 336 329 328 327 326 329 329 329 329 327 319 323 322 321 319 316 315 310 307 302 300 300 298 294 288 288 289 294 300 302 307
226 11 7 358 345 338 336 337 341 339 338 337 333 325 327 330 329 327 328 327 327 322 319 321 317 316 317 316 312 307 305 304 303 298 295 291 284 281 282 287 296 301 301
50 24 8 357 345 340 341 340 340 339 336 333 327 329 327 323 324 323 323 324 324 324 324 319 314 313 312 311 308 305 304 301 298 295 295 292 284 282 282 281 281 286 294
33 23 358 348 344 343 341 339 340 335 326 325 323 339 322 318 320 322 324 323 322 322 319 319 315 311 310 307 304 304 301 300 297 296 297 295 288 286 281 277 275 270 273
77 353 343 347 345 344 342 340 339 334 328 322 315 319 318 318 319 320 320 321 319 319 319 319 317 314 310 306 304 301 300 299 299 299 300 299 296 291 285 281 277 273 268
143 5 1 352 346 346 344 342 337 333 327 321 321 323 321 319 320 321 320 321 317 319 321 320 317 315 314 308 302 298 298 294 295 300 304 309 319 315 306 297 289 284 273
131 19 6 348 344 346 343 338 334 329 325 326 329 327 325 325 324 322 320 320 320 321 322 323 321 320 317 310 301 292 287 285 290 301 319 340 353 348 336 327 328 314 297
86 26 2 345 344 342 337 333 329 328 336 338 333 333 332 329 325 322 320 322 324 325 326 327 327 326 323 318 314 310 312 322 337 352 354 353 6 0 348 348 348 338 331
53 26 4 346 343 340 335 332 329 331 336 336 340 339 335 331 330 329 327 328 332 333 329 331 333 334 336 355 26 31 37 32 20 11 3 358 12 12 5 7 5 356 355
51 21 356 345 343 337 332 331 331 332 334 334 336 336 338 337 336 334 337 338 336 333 334 335 337 341 347 24 48 47 34 27 18 9 1 359 3 15 10 9 13 10 8
63 12 340 330 329 328 329 331 330 329 333 333 333 336 336 336 336 339 341 341 337 337 339 339 343 345 350 25 40 39 31 21 14 6 1 6 0 16 6 3 10 8 10
106 338 317 321 324 328 331 329 329 332 333 333 334 335 336 334 334 338 341 339 336 339 339 339 347 349 356 20 36 32 21 15 10 4 358 359 353 8 20 3 1 4 3
142 182 273 297 328 338 336 336 336 336 338 341 339 337 337 337 339 342 341 338 336 335 339 347 350 352 351 9 30 35 8 11 5 4 1 5 1 9 18 12 3 5 2
138 143 314 347 355 342 343 348 343 344 347 344 339 338 342 341 341 342 339 341 340 343 349 353 353 350 347 4 22 40 24 12 7 4 0 3 13 11 17 16 6 9 2
136 128 74 26 352 340 355 356 347 346 339 337 338 343 344 342 348 342 339 344 346 341 344 351 352 349 356 4 16 31 42 22 9 7 359 359 12 13 16 18 13 13 10
141 132 81 27 351 353 6 358 345 331 330 334 339 340 341 349 357 338 338 341 342 338 342 350 354 349 346 360 13 22 29 33 17 2 356 4 14 14 15 17 16 14 12
156 144 103 41 359 358 10 357 328 326 332 335 335 333 338 343 344 337 335 340 345 341 347 353 353 347 344 343 7 17 20 23 23 5 13 14 16 14 11 14 17 14 9
159 148 114 58 2 349 356 337 319 326 335 333 330 333 340 342 340 347 346 341 342 342 338 336 336 333 336 328 325 341 7 15 19 9 7 14 14 16 13 13 13 12 11
159 150 137 95 340 338 344 330 321 327 336 331 330 333 344 334 335 343 342 345 332 355 354 333 317 315 319 342 1 9 4 2 15 11 6 8 9 11 10 10 11 11 11
158 156 157 162 310 334 336 322 315 324 337 338 332 325 332 338 338 329 333 351 355 357 357 353 352 345 346 350 355 1 3 5 12 16 6 9 9 10 8 8 7 10 13
Height
1618 1616 1613 1610 1605 1599 1593 1588 1582 1576 1570 1564 1558 1553 1548 1543 1538 1532 1527 1521 1515 1510 1505 1500 1494 1489 1485 1480 1475 1470 1464 1460 1456 1450 1444 1438 1437 1434 1433 1433 1433 1432 1432
1617 1614 1611 1607 1602 1597 1592 1586 1581 1575 1569 1563 1558 1552 1546 1541 1535 1530 1524 1518 1513 1507 1502 1496 1491 1486 1481 1477 1472 1468 1462 1457 1455 1452 1445 1439 1432 1429 1427 1427 1427 1426 1427
1615 1612 1609 1605 1600 1595 1590 1584 1579 1573 1567 1561 1555 1549 1543 1537 1531 1525 1520 1515 1510 1504 1499 1493 1488 1483 1478 1474 1469 1465 1461 1455 1453 1453 1451 1445 1438 1428 1420 1421 1420 1420 1421
1613 1611 1607 1602 1598 1593 1588 1583 1577 1571 1565 1559 1552 1545 1539 1533 1527 1522 1516 1512 1507 1501 1495 1490 1484 1479 1475 1470 1466 1462 1458 1454 1450 1448 1447 1445 1441 1436 1424 1415 1414 1415 1415
1611 1608 1604 1600 1596 1591 1586 1581 1575 1569 1563 1556 1550 1543 1537 1531 1525 1519 1513 1507 1502 1497 1491 1486 1480 1475 1471 1466 1462 1458 1454 1451 1448 1445 1442 1440 1437 1434 1429 1419 1410 1409 1409
1608 1605 1602 1599 1594 1590 1585 1579 1573 1567 1560 1553 1547 1541 1534 1528 1521 1515 1508 1502 1497 1492 1487 1482 1476 1471 1466 1461 1457 1453 1449 1446 1443 1441 1438 1436 1433 1430 1427 1422 1414 1407 1404
1606 1603 1600 1597 1592 1587 1582 1576 1570 1564 1557 1551 1544 1538 1532 1525 1518 1511 1504 1498 1491 1486 1481 1477 1472 1466 1461 1456 1452 1447 1444 1441 1439 1436 1433 1430 1428 1426 1424 1421 1415 1408 1402
1604 1601 1599 1595 1590 1585 1579 1573 1567 1561 1555 1548 1542 1536 1529 1523 1516 1509 1502 1495 1488 1481 1476 1472 1467 1462 1457 1451 1447 1442 1439 1436 1434 1431 1428 1425 1423 1422 1420 1418 1414 1407 1401
1602 1600 1597 1593 1589 1583 1577 1571 1565 1559 1553 1546 1539 1533 1527 1520 1513 1506 1499 1491 1485 1478 1472 1467 1462 1457 1452 1447 1442 1437 1434 1431 1429 1426 1423 1421 1419 1417 1415 1413 1412 1410 1402
1600 1598 1595 1591 1587 1581 1576 1570 1564 1557 1551 1544 1537 1531 1524 1517 1510 1502 1495 1488 1482 1475 1469 1463 1457 1452 1447 1442 1437 1432 1429 1427 1424 1422 1419 1417 1414 1412 1410 1408 1406 1404 1401
1599 1596 1593 1590 1585 1580 1574 1568 1562 1555 1548 1542 1535 1528 1521 1514 1507 1500 1493 1486 1479 1473 1466 1460 1453 1447 1441 1436 1431 1427 1425 1422 1420 1418 1416 1413 1411 1408 1405 1403 1401 1398 1396
1597 1594 1591 1587 1582 1577 1571 1566 1559 1553 1546 1540 1533 1525 1518 1511 1504 1497 1491 1484 1478 1471 1464 1457 1450 1443 1436 1430 1426 1422 1420 1419 1417 1415 1413 1410 1407 1404 1401 1398 1395 1392 1390
1595 1592 1588 1584 1579 1574 1569 1564 1557 1551 1544 1537 1530 1523 1515 1509 1503 1496 1490 1483 1477 1470 1463 1455 1447 1438 1431 1424 1419 1417 1416 1416 1415 1414 1412 1409 1405 1402 1398 1394 1391 1387 1383
1592 1589 1585 1581 1577 1573 1568 1562 1556 1549 1542 1535 1528 1521 1514 1508 1503 1496 1490 1483 1476 1469 1462 1454 1446 1437 1428 1420 1415 1414 1415 1416 1415 1414 1411 1409 1405 1401 1396 1392 1387 1383 1378
1588 1585 1582 1579 1575 1571 1566 1561 1555 1548 1541 1534 1527 1521 1515 1509 1503 1496 1490 1483 1477 1470 1463 1455 1447 1438 1428 1423 1419 1418 1418 1418 1417 1415 1412 1409 1406 1402 1396 1391 1385 1380 1376
1585 1583 1581 1577 1573 1569 1564 1559 1553 1547 1540 1533 1527 1521 1515 1509 1503 1496 1490 1484 1478 1471 1464 1457 1450 1442 1434 1431 1427 1425 1423 1422 1419 1416 1413 1409 1406 1401 1395 1389 1384 1379 1375
1583 1581 1579 1575 1571 1567 1563 1558 1552 1546 1540 1534 1528 1522 1515 1509 1503 1497 1491 1485 1478 1472 1466 1460 1454 1447 1441 1438 1434 1431 1428 1425 1421 1418 1415 1411 1407 1402 1395 1389 1383 1378 1374
1580 1578 1576 1573 1570 1566 1562 1557 1552 1546 1539 1533 1528 1522 1515 1509 1503 1497 1491 1485 1480 1473 1467 1462 1458 1452 1447 1443 1439 1434 1431 1428 1424 1421 1417 1413 1408 1404 1396 1390 1384 1378 1374
1577 1576 1574 1571 1568 1565 1561 1556 1551 1545 1539 1533 1528 1522 1516 1509 1503 1497 1492 1487 1481 1475 1469 1465 1461 1456 1451 1448 1443 1437 1434 1430 1426 1422 1418 1415 1409 1405 1398 1391 1385 1380 1375
1575 1574 1572 1570 1567 1564 1560 1555 1550 1544 1538 1533 1528 1523 1517 1510 1505 1500 1494 1489 1483 1477 1472 1468 1464 1460 1455 1451 1447 1441 1436 1432 1428 1424 1420 1416 1412 1406 1400 1393 1387 1382 1377
1573 1572 1570 1568 1566 1562 1559 1555 1550 1544 1539 1535 1530 1524 1518 1512 1506 1501 1497 1491 1485 1480 1475 1471 1468 1463 1459 1455 1451 1446 1440 1435 1431 1426 1422 1417 1413 1407 1402 1396 1391 1386 1381
1570 1570 1569 1567 1564 1562 1558 1554 1549 1545 1541 1536 1531 1525 1519 1513 1508 1503 1498 1493 1487 1482 1478 1474 1470 1466 1462 1458 1455 1450 1445 1440 1434 1430 1425 1420 1414 1408 1403 1398 1393 1388 1383
1568 1567 1567 1565 1563 1560 1557 1553 1549 1545 1541 1536 1531 1526 1520 1515 1509 1504 1499 1494 1489 1485 1481 1476 1473 1469 1465 1461 1457 1453 1449 1443 1438 1433 1429 1423 1416 1410 1404 1400 1395 1390 1385
1565 1565 1565 1563 1562 1559 1556 1552 1549 1546 1542 1537 1532 1527 1521 1516 1511 1505 1500 1495 1491 1487 1483 1479 1475 1471 1467 1463 1459 1455 1450 1446 1440 1435 1430 1424 1419 1413 1408 1403 1398 1393 1389
1562 1562 1562 1561 1559 1557 1555 1552 1549 1546 1542 1538 1533 1528 1523 1517 1512 1507 1502 1497 1493 1489 1485 1480 1476 1471 1468 1465 1462 1458 1453 1449 1444 1438 1432 1426 1421 1415 1410 1406 1402 1398 1394
1559 1559 1559 1558 1557 1555 1553 1551 1548 1545 1541 1537 1533 1529 1524 1519 1514 1509 1505 1500 1495 1489 1484 1480 1477 1472 1469 1465 1462 1458 1454 1451 1446 1440 1435 1430 1426 1421 1416 1412 1407 1403 1399